User: anonymous   Login
Location: Unspecified
(0.0000°N, 0.0000°E)
Time: 08:49:23
(UTC+00:00)
Language:

STARLINK-33782 - Orbit

View from above orbital plane
View from above orbital plane
View from above satellite
View from above satellite

Ground track
Ground track

The orbit is defined by the following mean orbital elements,

1 64332U          26145.00809014 +.00000000 +00000-0 +75530-3 0 00004
2 64332  43.0002  50.5808 0001492 245.2501 114.8196 15.27566246    04
Epoch (UTC): 25 May 2026 00:11:38
Eccentricity: 0.0001492
inclination: 43.0002°
perigee height: 482 km
apogee height: 484 km
right ascension of ascending node: 50.5808°
argument of perigee: 245.2501°
revolutions per day: 15.27566246
mean anomaly at epoch: 114.8196°

The dashed part of the orbit path shows where the satellite is in the earth's shadow,  

DLR